[[[{"header":{"parameterUnit":"kt","parameterCategory":2,"dx":1,"dy":1,"la1":30.253999710083008,"la2":30.299108505249023,"lo1":-89.0895004272461,"lo2":-89.04439544677734,"nx":28,"ny":28,"refTime":"2022-09-27T15:00:00:Z","depth":0,"parameterNumber":1,"parameterNumberName":"U-component_of_WINDS"},"data":[-5.5926,-5.6073,-5.6035,-5.6186,-5.6177,-5.6273,-5.6296,-5.6321,-5.633,-5.644,-5.6497,-5.6474,-5.6469,-5.6527,-5.6586,-5.6574,-5.6603,-5.6682,-5.6655,-5.6335,-5.6288,-5.6243,-5.6206,-5.6688,-5.6689,-5.6993,-5.6996,-5.6998,-5.5693,-5.5686,-5.5755,-5.5796,-5.5854,-5.5755,-5.5779,-5.5835,-5.5923,-5.5937,-5.599,-5.6084,-5.6153,-5.612,-5.618,-5.6248,-5.6205,-5.6267,-5.6263,-5.6264,-5.5919,-5.588,-5.6301,-5.6301,-5.63,-5.63,-5.63,-5.63,-5.5259,-5.5349,-5.5351,-5.5425,-5.5435,-5.5463,-5.5542,-5.5511,-5.5577,-5.5636,-5.5577,-5.5677,-5.5683,-5.5736,-5.5745,-5.5821,-5.5746,-5.5802,-5.5817,-5.5833,-5.5856,-5.5425,-5.5829,-5.5828,-5.5827,-5.5826,-5.5825,0,-5.493,-5.4892,-5.4955,-5.5008,-5.5059,-5.5096,-5.5123,-5.5171,-5.5077,-5.5137,-5.5218,-5.5259,-5.534,-5.5413,-5.546,-5.5457,-5.5362,-5.5347,-5.5386,-5.5418,-5.5439,-5.5431,-5.4873,-5.5336,-5.5332,-5.5329,-5.5326,-5.5325,-5.4491,-5.46,-5.4584,-5.4634,-5.4639,-5.472,-5.4761,-5.467,-5.4717,-5.4737,-5.4821,-5.4892,-5.4945,-5.5082,-5.5046,-5.5106,-5.5061,-5.5242,-5.5069,-5.5094,-5.5066,-5.5061,-5.5072,-5.5278,-5.5284,-5.5289,-5.5293,0,-5.4248,-5.4185,-5.4341,-5.4314,-5.4311,-5.443,-5.4406,-5.4492,-5.4452,-5.4565,-5.4586,-5.4525,-5.4607,-5.454,-5.462,-5.4583,-5.4778,-5.4731,-5.4775,-5.4763,-5.492,-5.4907,-5.5437,-5.5502,-5.4999,-5.5004,-5.5008,0,-5.385,-5.3996,-5.3894,-5.3988,-5.4147,-5.4052,-5.4212,-5.4194,-5.4197,-5.4284,-5.4163,-5.4249,-5.4149,-5.4224,-5.4169,-5.4316,-5.4331,-5.4312,-5.4296,-5.4325,-5.4328,-5.4351,-5.4329,-5.4254,-5.4251,-5.4249,-5.4246,0,-5.3478,-5.3594,-5.3746,-5.3762,-5.3749,-5.3822,-5.382,-5.3823,-5.3864,-5.3905,-5.3931,-5.3987,-5.4019,-5.4063,-5.3993,-5.3879,-5.417,-5.3999,-5.4151,-5.4154,-5.4222,-5.422,-5.4702,-5.4243,-5.4242,-5.4241,-5.4241,0,-5.3147,-5.3191,-5.3421,-5.3406,-5.3441,-5.3541,-5.3589,-5.3659,-5.3671,-5.3642,-5.3674,-5.3587,-5.3708,-5.3543,-5.371,-5.3581,-5.3619,-5.3611,-5.362,-5.363,-5.3447,-5.3732,-5.4197,-5.4244,-5.3635,-5.363,-5.3625,0,-5.2739,-5.2954,-5.2873,-5.3094,-5.3184,-5.3041,-5.315,-5.3164,-5.3135,-5.3207,-5.3173,-5.3257,-5.3119,-5.3136,-5.3227,-5.3197,-5.3364,-5.3172,-5.3279,-5.3284,-5.3283,-5.3709,-5.3796,-5.4101,-5.356,-5.3566,-5.3571,0,-5.2416,-5.2397,-5.2443,-5.2457,-5.246,-5.2535,-5.266,-5.2721,-5.2773,-5.2802,-5.2905,-5.3019,-5.292,-5.295,-5.2884,-5.2983,-5.3248,-5.2864,-5.2863,-5.2937,-5.352,-5.3602,-5.3654,-5.3182,-5.319,-5.3196,-5.3519,0,-5.1934,-5.2033,-5.2151,-5.2188,-5.2235,-5.2369,-5.2297,-5.2355,-5.2286,-5.2253,-5.2403,-5.2397,-5.2461,-5.25,-5.2435,-5.2682,-5.2631,-5.2525,-5.2361,-5.264,-5.2745,-5.2788,-5.2211,-5.2205,-5.2201,-5.2197,0,0,-5.1561,-5.1701,-5.1609,-5.1727,-5.1761,-5.1611,-5.1761,-5.1777,-5.1813,-5.184,-5.1747,-5.1909,-5.191,-5.21,-5.2181,-5.2207,-5.2245,-5.2151,-5.2507,-5.2542,-5.2574,-5.2688,-5.2733,-5.2189,-5.2188,-5.2186,-5.2185,0,-5.137,-5.1372,-5.1521,-5.1532,-5.1546,-5.1502,-5.1538,-5.1526,-5.1512,-5.1658,-5.1534,-5.1616,-5.1749,-5.1765,-5.1791,-5.2124,-5.2028,-5.2149,-5.2353,-5.2465,-5.2506,-5.2542,-5.2662,-5.2706,-5.2174,-5.2175,-5.2175,0,-5.104,-5.103,-5.1094,-5.1163,-5.1171,-5.1268,-5.1077,-5.1187,-5.1257,-5.109,-5.1239,-5.1227,-5.1243,-5.1432,-5.1514,-5.1432,-5.1835,-5.1695,-5.1721,-5.1729,-5.1835,-5.1884,-5.1928,-5.1352,-5.135,-5.1347,0,0,-5.0886,-5.0977,-5.0938,-5.1117,-5.1131,-5.1068,-5.1112,-5.1049,-5.1066,-5.1074,-5.1056,-5.1078,-5.1153,-5.1205,-5.1273,-5.149,-5.1487,-5.1597,-5.1635,-5.1667,-5.1694,-5.1808,-5.1856,-5.1338,-5.1338,-5.1337,0,0,-5.0812,-5.0775,-5.0703,-5.0901,-5.0921,-5.0896,-5.1008,-5.0919,-5.0973,-5.095,-5.0849,-5.085,-5.1025,-5.1019,-5.0897,-5.1214,-5.1052,-5.108,-5.1212,-5.126,-5.1298,-5.1297,-5.0703,0,0,0,0,0,-5.0581,-5.0778,-5.0714,-5.0736,-5.0824,-5.0932,-5.0942,-5.0863,-5.075,-5.0841,-5.0812,-5.0705,-5.0932,-5.0822,-5.0846,-5.0984,-5.1213,-5.1235,-5.1256,-5.1476,-5.1527,-5.157,0,0,0,0,0,0,-5.0589,-5.0617,-5.0708,-5.0693,-5.0711,-5.0924,-5.0716,-5.0699,-5.0738,-5.0716,-5.0714,-5.0705,-5.064,-5.0804,-5.0827,-5.096,-5.0695,-5.1221,-5.124,-5.1257,-5.1494,-5.1536,-5.1571,0,0,0,0,0,-5.0595,-5.0617,-5.0779,-5.0689,-5.0706,-5.0647,-5.0707,-5.0692,-5.0721,-5.0677,-5.0665,-5.0658,-5.0646,-5.066,-5.0817,-5.0951,-5.0678,-5.0687,-5.1234,-5.1249,-5.1262,-5.1514,0,0,0,0,0,0,-5.06,-5.0604,-5.078,-5.0782,-5.0609,-5.0634,-5.0635,-5.0687,-5.0678,-5.0668,-5.0616,-5.0598,-5.0652,-5.0662,-5.0673,-5.0953,-5.0665,-5.0674,-5.068,-5.1245,-5.1257,-5.1267,0,0,0,0,0,0,-5.0592,-5.0607,-5.0781,-5.0684,-5.0674,-5.0622,-5.0623,-5.0745,-5.068,-5.0617,-5.0601,-5.0608,-5.0635,-5.0665,-5.0673,-5.0867,-5.0654,-5.0663,-5.0669,-5.0673,-5.1254,-5.1264,0,0,0,0,0,0,-5.0597,-5.061,-5.0683,-5.0676,-5.0666,-5.0683,-5.0728,-5.0823,-5.0596,-5.0619,-5.0574,-5.0564,-5.0641,-5.0648,-5.0673,-5.0865,-5.0866,-5.0655,-5.0661,-5.0665,-5.0668,0,0,0,0,0,0,0,-5.0601,-5.0531,-5.0768,-5.0669,-5.066,-5.0801,-5.0802,-5.0802,-5.0594,-5.0585,-5.0576,-5.0568,-5.0605,-5.0614,-5.0624,-5.0863,0,0,-5.0654,-5.0658,0,0,0,0,0,0,0,0,-5.0524,-5.0529,-5.0768,-5.0769,-5.0769,-5.0801,-5.0802,-5.0802,-5.0593,-5.0585,-5.0578,-5.0571,-5.0608,-5.0615,-5.0623,0,0,0,0,0,0,0,0,0,0,0,0,0,0,0,-5.0768,-5.0769,0,-5.0801,-5.0802,-5.0802,-5.0592,-5.0586,-5.058,-5.0574,-5.061,-5.0616,-5.0622,0,0,0,0,0,0,0,0,0,0,0,0,0,0,0,0,0,0,0,0,0,0,0,0,0,0,0,0,0,0,0,0,0,0,0,0,0,0,0,0,0,0,0,0,0,0,0,0,0,0,0,0,0,0,0,0,0,0,0,0,0,0,0,0,0,0,0,0,0]}],[{"header":{"parameterUnit":"kt","parameterCategory":2,"dx":1,"dy":1,"la1":30.253999710083008,"la2":30.299108505249023,"lo1":-89.0895004272461,"lo2":-89.04439544677734,"nx":28,"ny":28,"refTime":"2022-09-27T15:00:00:Z","depth":0,"parameterNumber":2,"parameterNumberName":"V-component_of_WINDS"},"data":[-15.4225,-15.4473,-15.4444,-15.4711,-15.473,-15.4905,-15.4958,-15.5021,-15.5063,-15.5265,-15.5375,-15.5366,-15.5391,-15.5511,-15.5624,-15.5616,-15.5666,-15.5776,-15.5747,-15.5288,-15.5222,-15.5159,-15.51,-15.5788,-15.5789,-15.6226,-15.6231,-15.6234,-15.389,-15.3913,-15.4047,-15.4156,-15.4268,-15.4145,-15.4219,-15.432,-15.4479,-15.4532,-15.4639,-15.4812,-15.4943,-15.493,-15.5048,-15.5158,-15.5104,-15.5192,-15.5182,-15.5188,-15.4696,-15.4634,-15.5234,-15.5234,-15.5233,-15.5233,-15.5233,-15.5233,-15.3273,-15.3423,-15.3472,-15.3616,-15.3662,-15.3734,-15.3869,-15.3857,-15.3983,-15.4108,-15.4043,-15.422,-15.4264,-15.4389,-15.4422,-15.4556,-15.4451,-15.4536,-15.4557,-15.4579,-15.4609,-15.398,-15.4574,-15.4572,-15.457,-15.4569,-15.4567,0,-15.2811,-15.2777,-15.2902,-15.302,-15.3122,-15.3209,-15.3282,-15.3365,-15.3274,-15.3382,-15.3534,-15.3615,-15.3774,-15.391,-15.4013,-15.4028,-15.3906,-15.389,-15.3947,-15.3982,-15.3999,-15.3991,-15.3191,-15.3872,-15.3866,-15.3861,-15.3858,-15.3856,-15.2184,-15.2363,-15.2399,-15.2491,-15.2523,-15.2673,-15.2754,-15.2661,-15.2751,-15.2824,-15.2958,-15.3094,-15.3199,-15.3443,-15.3419,-15.3536,-15.3477,-15.3741,-15.3493,-15.352,-15.3479,-15.347,-15.3486,-15.3791,-15.3799,-15.3806,-15.3811,0,-15.1834,-15.1783,-15.2049,-15.2065,-15.2074,-15.2265,-15.2275,-15.2418,-15.2388,-15.258,-15.2619,-15.257,-15.2719,-15.2652,-15.2807,-15.2767,-15.3072,-15.3012,-15.3056,-15.304,-15.3269,-15.3248,-15.4024,-15.412,-15.3407,-15.3414,-15.342,0,-15.1278,-15.1516,-15.1425,-15.1583,-15.1842,-15.1742,-15.2,-15.1999,-15.2036,-15.2186,-15.2038,-15.2181,-15.2072,-15.2205,-15.2146,-15.2384,-15.2413,-15.2395,-15.2377,-15.2409,-15.2411,-15.2452,-15.2418,-15.2329,-15.2325,-15.2322,-15.2319,0,-15.0734,-15.0964,-15.1219,-15.1262,-15.1301,-15.1422,-15.1443,-15.1483,-15.1563,-15.1654,-15.1704,-15.1818,-15.188,-15.1969,-15.1892,-15.1727,-15.2181,-15.1938,-15.2163,-15.2166,-15.2266,-15.2261,-15.2966,-15.2314,-15.2313,-15.2311,-15.231,0,-15.0276,-15.0377,-15.0755,-15.0783,-15.0846,-15.1013,-15.112,-15.1247,-15.13,-15.1274,-15.1345,-15.1237,-15.144,-15.1203,-15.148,-15.1286,-15.1355,-15.1357,-15.1372,-15.1384,-15.1121,-15.1527,-15.2207,-15.2274,-15.1398,-15.139,-15.1383,0,-14.9667,-15.0035,-14.9952,-15.0312,-15.0472,-15.0294,-15.0477,-15.0528,-15.051,-15.0639,-15.0614,-15.0763,-15.0572,-15.0608,-15.0755,-15.0735,-15.0987,-15.0699,-15.0881,-15.0889,-15.0873,-15.1498,-15.1616,-15.2065,-15.1285,-15.1295,-15.1303,0,-14.9187,-14.9235,-14.9305,-14.9349,-14.9404,-14.9537,-14.9748,-14.9873,-14.9964,-15.0038,-15.0209,-15.0415,-15.0279,-15.0341,-15.0264,-15.042,-15.0813,-15.0252,-15.0251,-15.0354,-15.123,-15.1341,-15.1417,-15.0726,-15.0738,-15.0748,-15.1225,0,-14.8505,-14.8682,-14.887,-14.8975,-14.9067,-14.9289,-14.922,-14.9325,-14.9242,-14.9216,-14.9467,-14.949,-14.9615,-14.9683,-14.9603,-14.9983,-14.9908,-14.9761,-14.9524,-14.9935,-15.009,-15.0154,-14.9298,-14.9291,-14.9285,-14.928,0,0,-14.7933,-14.8186,-14.8087,-14.829,-14.8361,-14.8173,-14.8416,-14.8462,-14.8562,-14.8613,-14.8481,-14.8776,-14.88,-14.9111,-14.9234,-14.9285,-14.9345,-14.9204,-14.974,-14.9792,-14.984,-15.0007,-15.0074,-14.9269,-14.9266,-14.9264,-14.9262,0,-14.767,-14.7706,-14.7949,-14.7994,-14.8056,-14.8018,-14.8077,-14.8104,-14.8098,-14.8345,-14.8183,-14.8324,-14.8563,-14.8609,-14.8664,-14.9166,-14.9034,-14.9209,-14.9503,-14.968,-14.974,-14.9793,-14.997,-15.0035,-14.9247,-14.9248,-14.9248,0,-14.7184,-14.7207,-14.7317,-14.7473,-14.7512,-14.768,-14.7416,-14.7606,-14.7728,-14.7508,-14.7755,-14.7758,-14.7814,-14.8119,-14.8252,-14.8135,-14.8754,-14.8546,-14.8583,-14.8596,-14.8764,-14.8836,-14.8901,-14.8053,-14.8048,-14.8045,0,0,-14.6965,-14.713,-14.7122,-14.7411,-14.7447,-14.7393,-14.7475,-14.7401,-14.7458,-14.7481,-14.7482,-14.754,-14.7675,-14.7768,-14.7892,-14.8238,-14.8239,-14.8402,-14.8458,-14.8505,-14.8543,-14.8723,-14.8795,-14.8031,-14.803,-14.803,0,0,-14.6859,-14.6864,-14.6771,-14.7098,-14.716,-14.7169,-14.7346,-14.7232,-14.7337,-14.7304,-14.7184,-14.7194,-14.7477,-14.7486,-14.73,-14.7806,-14.7573,-14.7616,-14.779,-14.786,-14.7916,-14.7907,-14.7029,0,0,0,0,0,-14.6554,-14.6863,-14.6779,-14.6824,-14.7018,-14.7216,-14.7239,-14.715,-14.6987,-14.713,-14.7111,-14.6965,-14.7361,-14.7193,-14.7237,-14.7445,-14.7843,-14.7876,-14.7907,-14.8213,-14.8287,-14.8349,0,0,0,0,0,0,-14.6571,-14.6626,-14.6771,-14.6795,-14.6838,-14.7204,-14.6908,-14.6892,-14.697,-14.6938,-14.6973,-14.6966,-14.6891,-14.7164,-14.7205,-14.7405,-14.7015,-14.7856,-14.7884,-14.791,-14.8238,-14.8299,-14.8351,0,0,0,0,0,-14.6583,-14.6627,-14.6964,-14.679,-14.6827,-14.6782,-14.6896,-14.688,-14.6938,-14.6911,-14.6899,-14.6864,-14.6899,-14.6927,-14.7188,-14.7389,-14.6986,-14.7001,-14.7874,-14.7896,-14.7916,-14.8268,0,0,0,0,0,0,-14.6593,-14.6613,-14.6969,-14.6977,-14.6667,-14.6759,-14.6771,-14.687,-14.6903,-14.6895,-14.6793,-14.6769,-14.6909,-14.6929,-14.6952,-14.7389,-14.6962,-14.6978,-14.6988,-14.7891,-14.7909,-14.7924,0,0,0,0,0,0,-14.6588,-14.6621,-14.6973,-14.6823,-14.6813,-14.6739,-14.675,-14.6957,-14.6905,-14.6783,-14.6763,-14.6782,-14.6873,-14.6932,-14.6948,-14.7276,-14.6944,-14.6959,-14.697,-14.6976,-14.7905,-14.7919,0,0,0,0,0,0,-14.66,-14.6628,-14.682,-14.6813,-14.6803,-14.6883,-14.692,-14.7123,-14.6781,-14.6784,-14.6747,-14.6732,-14.6881,-14.6895,-14.6948,-14.7269,-14.7274,-14.6944,-14.6955,-14.6962,-14.6967,0,0,0,0,0,0,0,-14.661,-14.6446,-14.6924,-14.6804,-14.6795,-14.7049,-14.7051,-14.7053,-14.6778,-14.6764,-14.6751,-14.6739,-14.6857,-14.6874,-14.689,-14.7264,0,0,-14.6943,-14.695,0,0,0,0,0,0,0,0,-14.6432,-14.6442,-14.6924,-14.6926,-14.6927,-14.7049,-14.7051,-14.7053,-14.6775,-14.6765,-14.6754,-14.6744,-14.6861,-14.6875,-14.6889,0,0,0,0,0,0,0,0,0,0,0,0,0,0,0,-14.6924,-14.6926,0,-14.7049,-14.7051,-14.7052,-14.6774,-14.6765,-14.6756,-14.6748,-14.6865,-14.6876,-14.6888,0,0,0,0,0,0,0,0,0,0,0,0,0,0,0,0,0,0,0,0,0,0,0,0,0,0,0,0,0,0,0,0,0,0,0,0,0,0,0,0,0,0,0,0,0,0,0,0,0,0,0,0,0,0,0,0,0,0,0,0,0,0,0,0,0,0,0,0,0]}]]]